Tracking 18957 objects as of 22-Jan-2018
HD Live streaming from Space Station
objects crossing your sky now

SL-12 DEB

Track SL-12 DEB now!
10-day predictions


NORAD ID: 41704
Int'l Code: 2010-007W
Perigee: 895.4 km
Apogee: 18,041.8 km
Inclination: 65.3 °
Period: 330.7 minutes
Semi major axis: 15839 km
RCS: Unknown
Launch date: March 1, 2010
Source: Commonwealth of Independent States (former USSR) (CIS)
Launch site: TYURATAM MISSILE AND SPACE COMPLEX (TTMTR)

Note: This is SATELLITE DEBRIS
aabbcc
Your satellite tracking list
Your tracking list is empty




NASA's NSSDC Master Catalog

Two Line Element Set (TLE):
1 41704U 10007W   18021.10612992 +.00001133 +00000-0 +23482-1 0  9994
2 41704 065.3328 218.2785 5412490 055.0703 344.6041 04.35497013046405
Source of the keplerian elements: AFSPC